contact:dominique.lefevre@mio.osupytheas.fr, maurice.libes@osupytheas.fr, didier.mallarino@osupytheas.fr
Project:EMSO http://www.emso-fr.org/EMSO-France
Depth: 2436.0 m
Title:EMSO Ligure Ouest : Data MII capteur MICROCAT
DateTime_Computer,Latitude,Longitude,Temperature,Conductivity,Pressure,DateTime_Instrument
DateTime_Computer,Latitude,Longitude,degC,S m-1,dbar,DateTime_Instrument
2022-05-09T00:02:20Z,42.805,6.029,13.3000,4.60033,2470.297,2022-5-09T02:04:01Z
2022-05-09T00:05:24Z,42.805,6.029,13.2999,4.60033,2470.297,2022-5-09T02:07:04Z
2022-05-09T00:08:27Z,42.805,6.029,13.2999,4.60033,2470.334,2022-5-09T02:10:07Z
2022-05-09T00:11:30Z,42.805,6.029,13.2999,4.60033,2470.31,2022-5-09T02:13:10Z
2022-05-09T00:14:33Z,42.805,6.029,13.2998,4.60034,2470.297,2022-5-09T02:16:13Z
2022-05-09T00:17:36Z,42.805,6.029,13.2998,4.60033,2470.334,2022-5-09T02:19:16Z
2022-05-09T00:20:39Z,42.805,6.029,13.2997,4.60034,2470.343,2022-5-09T02:22:19Z
2022-05-09T00:23:42Z,42.805,6.029,13.2999,4.60034,2470.297,2022-5-09T02:25:23Z
2022-05-09T00:26:45Z,42.805,6.029,13.2998,4.60034,2470.334,2022-5-09T02:28:26Z
2022-05-09T00:29:48Z,42.805,6.029,13.3001,4.60034,2470.31,2022-5-09T02:31:29Z
2022-05-09T00:32:52Z,42.805,6.029,13.2999,4.60033,2470.32,2022-5-09T02:34:32Z
2022-05-09T00:35:55Z,42.805,6.029,13.2999,4.60033,2470.297,2022-5-09T02:37:35Z
2022-05-09T00:38:58Z,42.805,6.029,13.2998,4.60032,2470.343,2022-5-09T02:40:38Z
2022-05-09T00:42:01Z,42.805,6.029,13.3000,4.60033,2470.32,2022-5-09T02:43:41Z
2022-05-09T00:45:04Z,42.805,6.029,13.2996,4.60033,2470.334,2022-5-09T02:46:44Z
2022-05-09T00:48:07Z,42.805,6.029,13.2997,4.60033,2470.32,2022-5-09T02:49:48Z
2022-05-09T00:51:10Z,42.805,6.029,13.2998,4.60033,2470.32,2022-5-09T02:52:51Z
2022-05-09T00:54:13Z,42.805,6.029,13.2998,4.60033,2470.334,2022-5-09T02:55:54Z
2022-05-09T00:57:17Z,42.805,6.029,13.3001,4.60033,2470.334,2022-5-09T02:58:57Z
2022-05-09T01:00:20Z,42.805,6.029,13.3001,4.60033,2470.32,2022-5-09T03:02:00Z
2022-05-09T01:03:23Z,42.805,6.029,13.2999,4.60034,2470.297,2022-5-09T03:05:03Z
2022-05-09T01:06:26Z,42.805,6.029,13.2996,4.60032,2470.297,2022-5-09T03:08:06Z
2022-05-09T01:09:29Z,42.805,6.029,13.2998,4.60033,2470.32,2022-5-09T03:11:09Z
2022-05-09T01:12:32Z,42.805,6.029,13.3003,4.60034,2470.334,2022-5-09T03:14:12Z
2022-05-09T01:15:35Z,42.805,6.029,13.3004,4.60033,2470.32,2022-5-09T03:17:16Z
2022-05-09T01:18:38Z,42.805,6.029,13.2998,4.60034,2470.334,2022-5-09T03:20:19Z
2022-05-09T01:21:41Z,42.805,6.029,13.3002,4.60033,2470.32,2022-5-09T03:23:22Z
2022-05-09T01:24:45Z,42.805,6.029,13.2998,4.60034,2470.297,2022-5-09T03:26:25Z
2022-05-09T01:27:48Z,42.805,6.029,13.2999,4.60033,2470.334,2022-5-09T03:29:28Z
2022-05-09T01:30:51Z,42.805,6.029,13.2998,4.60035,2470.32,2022-5-09T03:32:31Z
2022-05-09T01:33:54Z,42.805,6.029,13.2998,4.60033,2470.343,2022-5-09T03:35:34Z
2022-05-09T01:36:57Z,42.805,6.029,13.2996,4.60033,2470.334,2022-5-09T03:38:37Z
2022-05-09T01:40:00Z,42.805,6.029,13.2997,4.60033,2470.343,2022-5-09T03:41:40Z
2022-05-09T01:43:03Z,42.805,6.029,13.2998,4.60032,2470.343,2022-5-09T03:44:44Z
2022-05-09T01:46:06Z,42.805,6.029,13.3001,4.60033,2470.334,2022-5-09T03:47:47Z
2022-05-09T01:49:09Z,42.805,6.029,13.3000,4.60034,2470.334,2022-5-09T03:50:50Z
2022-05-09T01:52:13Z,42.805,6.029,13.2996,4.60033,2470.32,2022-5-09T03:53:53Z
2022-05-09T01:55:16Z,42.805,6.029,13.2998,4.60033,2470.334,2022-5-09T03:56:56Z
2022-05-09T01:58:19Z,42.805,6.029,13.3004,4.60035,2470.334,2022-5-09T03:59:59Z
2022-05-09T02:01:22Z,42.805,6.029,13.2997,4.60033,2470.366,2022-5-09T04:03:02Z
2022-05-09T02:04:25Z,42.805,6.029,13.3000,4.60033,2470.357,2022-5-09T04:06:05Z
2022-05-09T02:07:28Z,42.805,6.029,13.3002,4.60033,2470.334,2022-5-09T04:09:09Z
2022-05-09T02:10:31Z,42.805,6.029,13.3002,4.60035,2470.357,2022-5-09T04:12:12Z
2022-05-09T02:13:34Z,42.805,6.029,13.2999,4.60033,2470.343,2022-5-09T04:15:15Z
2022-05-09T02:16:37Z,42.805,6.029,13.2999,4.60033,2470.306,2022-5-09T04:18:18Z
2022-05-09T02:19:41Z,42.805,6.029,13.2998,4.60034,2470.38,2022-5-09T04:21:21Z
2022-05-09T02:22:44Z,42.805,6.029,13.3004,4.60035,2470.366,2022-5-09T04:24:24Z
2022-05-09T02:25:47Z,42.805,6.029,13.3001,4.60033,2470.32,2022-5-09T04:27:27Z
2022-05-09T02:28:50Z,42.805,6.029,13.2997,4.60033,2470.32,2022-5-09T04:30:30Z
2022-05-09T02:31:53Z,42.805,6.029,13.3001,4.60034,2470.404,2022-5-09T04:33:34Z
2022-05-09T02:34:56Z,42.805,6.029,13.2999,4.60033,2470.343,2022-5-09T04:36:37Z
2022-05-09T02:37:59Z,42.805,6.029,13.2998,4.60032,2470.366,2022-5-09T04:39:40Z
2022-05-09T02:41:02Z,42.805,6.029,13.3004,4.60033,2470.343,2022-5-09T04:42:43Z
2022-05-09T02:44:06Z,42.805,6.029,13.2998,4.60033,2470.334,2022-5-09T04:45:46Z
2022-05-09T02:47:09Z,42.805,6.029,13.2997,4.60033,2470.357,2022-5-09T04:48:49Z
2022-05-09T02:50:12Z,42.805,6.029,13.2998,4.60033,2470.343,2022-5-09T04:51:52Z
2022-05-09T02:53:15Z,42.805,6.029,13.2999,4.60033,2470.357,2022-5-09T04:54:55Z
2022-05-09T02:56:18Z,42.805,6.029,13.2999,4.60033,2470.343,2022-5-09T04:57:58Z
2022-05-09T02:59:21Z,42.805,6.029,13.2995,4.60031,2470.343,2022-5-09T05:01:02Z
2022-05-09T03:02:24Z,42.805,6.029,13.2998,4.60033,2470.366,2022-5-09T05:04:05Z
2022-05-09T03:05:27Z,42.805,6.029,13.3001,4.60033,2470.343,2022-5-09T05:07:08Z
2022-05-09T03:08:31Z,42.805,6.029,13.3000,4.60033,2470.38,2022-5-09T05:10:11Z
2022-05-09T03:11:34Z,42.805,6.029,13.2998,4.60033,2470.366,2022-5-09T05:13:14Z
2022-05-09T03:14:37Z,42.805,6.029,13.3002,4.60032,2470.32,2022-5-09T05:16:17Z
2022-05-09T03:17:40Z,42.805,6.029,13.2996,4.60033,2470.357,2022-5-09T05:19:20Z
2022-05-09T03:20:43Z,42.805,6.029,13.2998,4.60033,2470.38,2022-5-09T05:22:23Z
2022-05-09T03:23:46Z,42.805,6.029,13.2998,4.60031,2470.357,2022-5-09T05:25:27Z
2022-05-09T03:26:49Z,42.805,6.029,13.2997,4.60032,2470.343,2022-5-09T05:28:30Z
2022-05-09T03:29:52Z,42.805,6.029,13.2998,4.60032,2470.334,2022-5-09T05:31:33Z
2022-05-09T03:32:55Z,42.805,6.029,13.3000,4.60033,2470.38,2022-5-09T05:34:36Z
2022-05-09T03:35:59Z,42.805,6.029,13.2998,4.60033,2470.343,2022-5-09T05:37:39Z
2022-05-09T03:39:02Z,42.805,6.029,13.2996,4.60032,2470.343,2022-5-09T05:40:42Z
2022-05-09T03:42:05Z,42.805,6.029,13.2998,4.60032,2470.343,2022-5-09T05:43:45Z
2022-05-09T03:45:08Z,42.805,6.029,13.2998,4.60033,2470.32,2022-5-09T05:46:48Z
2022-05-09T03:48:11Z,42.805,6.029,13.2998,4.60031,2470.343,2022-5-09T05:49:51Z
2022-05-09T03:51:14Z,42.805,6.029,13.2993,4.60033,2470.343,2022-5-09T05:52:55Z
2022-05-09T03:54:17Z,42.805,6.029,13.2996,4.60032,2470.343,2022-5-09T05:55:58Z
2022-05-09T03:57:20Z,42.805,6.029,13.3000,4.60032,2470.38,2022-5-09T05:59:01Z
2022-05-09T04:00:24Z,42.805,6.029,13.2999,4.60032,2470.32,2022-5-09T06:02:04Z
2022-05-09T04:03:27Z,42.805,6.029,13.3000,4.60032,2470.31,2022-5-09T06:05:07Z
2022-05-09T04:06:30Z,42.805,6.029,13.2998,4.60032,2470.357,2022-5-09T06:08:10Z
2022-05-09T04:09:33Z,42.805,6.029,13.2998,4.60032,2470.357,2022-5-09T06:11:13Z
2022-05-09T04:12:36Z,42.805,6.029,13.2997,4.60031,2470.357,2022-5-09T06:14:16Z
2022-05-09T04:15:39Z,42.805,6.029,13.2998,4.60031,2470.32,2022-5-09T06:17:19Z
2022-05-09T04:18:42Z,42.805,6.029,13.2997,4.60031,2470.343,2022-5-09T06:20:23Z
2022-05-09T04:21:45Z,42.805,6.029,13.2998,4.60031,2470.32,2022-5-09T06:23:26Z
2022-05-09T04:24:48Z,42.805,6.029,13.2999,4.60033,2470.357,2022-5-09T06:26:29Z
2022-05-09T04:27:52Z,42.805,6.029,13.2998,4.60031,2470.357,2022-5-09T06:29:32Z
2022-05-09T04:30:55Z,42.805,6.029,13.2997,4.60031,2470.343,2022-5-09T06:32:35Z
2022-05-09T04:33:58Z,42.805,6.029,13.3003,4.60031,2470.366,2022-5-09T06:35:38Z
2022-05-09T04:37:01Z,42.805,6.029,13.2996,4.60031,2470.343,2022-5-09T06:38:41Z
2022-05-09T04:40:04Z,42.805,6.029,13.2995,4.60031,2470.343,2022-5-09T06:41:44Z
2022-05-09T04:43:07Z,42.805,6.029,13.3002,4.60031,2470.334,2022-5-09T06:44:48Z
2022-05-09T04:46:10Z,42.805,6.029,13.2998,4.60031,2470.32,2022-5-09T06:47:51Z
2022-05-09T04:49:13Z,42.805,6.029,13.3000,4.60031,2470.357,2022-5-09T06:50:54Z
2022-05-09T04:52:17Z,42.805,6.029,13.3000,4.60032,2470.32,2022-5-09T06:53:57Z
2022-05-09T04:55:20Z,42.805,6.029,13.2998,4.60031,2470.343,2022-5-09T06:57:00Z
2022-05-09T04:58:23Z,42.805,6.029,13.2994,4.60031,2470.32,2022-5-09T07:00:03Z
2022-05-09T05:01:26Z,42.805,6.029,13.3000,4.60031,2470.343,2022-5-09T07:03:06Z
2022-05-09T05:04:29Z,42.805,6.029,13.2997,4.60031,2470.32,2022-5-09T07:06:09Z
2022-05-09T05:07:32Z,42.805,6.029,13.2996,4.60031,2470.31,2022-5-09T07:09:12Z
2022-05-09T05:10:35Z,42.805,6.029,13.2998,4.60032,2470.343,2022-5-09T07:12:16Z
2022-05-09T05:13:38Z,42.805,6.029,13.2998,4.60031,2470.31,2022-5-09T07:15:19Z
2022-05-09T05:16:41Z,42.805,6.029,13.2997,4.60031,2470.334,2022-5-09T07:18:22Z
2022-05-09T05:19:45Z,42.805,6.029,13.2996,4.60031,2470.334,2022-5-09T07:21:25Z
2022-05-09T05:22:48Z,42.805,6.029,13.3000,4.60031,2470.32,2022-5-09T07:24:28Z
2022-05-09T05:25:51Z,42.805,6.029,13.2999,4.60032,2470.297,2022-5-09T07:27:31Z
2022-05-09T05:28:54Z,42.805,6.029,13.2997,4.60031,2470.32,2022-5-09T07:30:34Z
2022-05-09T05:31:57Z,42.805,6.029,13.2998,4.60031,2470.32,2022-5-09T07:33:37Z
2022-05-09T05:35:00Z,42.805,6.029,13.2999,4.60031,2470.334,2022-5-09T07:36:41Z
2022-05-09T05:38:03Z,42.805,6.029,13.2998,4.60031,2470.297,2022-5-09T07:39:44Z
2022-05-09T05:41:06Z,42.805,6.029,13.2998,4.60033,2470.334,2022-5-09T07:42:47Z
2022-05-09T05:44:09Z,42.805,6.029,13.2996,4.60031,2470.32,2022-5-09T07:45:50Z
2022-05-09T05:47:13Z,42.805,6.029,13.2998,4.60031,2470.297,2022-5-09T07:48:53Z
2022-05-09T05:50:16Z,42.805,6.029,13.3002,4.60031,2470.334,2022-5-09T07:51:56Z
2022-05-09T05:53:19Z,42.805,6.029,13.2996,4.60031,2470.32,2022-5-09T07:54:59Z
2022-05-09T05:56:22Z,42.805,6.029,13.2998,4.60031,2470.334,2022-5-09T07:58:02Z
2022-05-09T05:59:25Z,42.805,6.029,13.2998,4.60031,2470.343,2022-5-09T08:01:05Z
2022-05-09T06:02:28Z,42.805,6.029,13.2997,4.60032,2470.306,2022-5-09T08:04:09Z
2022-05-09T06:05:31Z,42.805,6.029,13.2996,4.60031,2470.31,2022-5-09T08:07:12Z
2022-05-09T06:08:34Z,42.805,6.029,13.2998,4.60033,2470.334,2022-5-09T08:10:15Z
2022-05-09T06:11:38Z,42.805,6.029,13.2994,4.60031,2470.297,2022-5-09T08:13:18Z
2022-05-09T06:14:41Z,42.805,6.029,13.2997,4.60031,2470.31,2022-5-09T08:16:21Z
2022-05-09T06:17:44Z,42.805,6.029,13.3000,4.60031,2470.31,2022-5-09T08:19:24Z
2022-05-09T06:20:47Z,42.805,6.029,13.2997,4.60031,2470.297,2022-5-09T08:22:27Z
2022-05-09T06:23:50Z,42.805,6.029,13.3000,4.60031,2470.32,2022-5-09T08:25:30Z
2022-05-09T06:26:53Z,42.805,6.029,13.2999,4.60031,2470.297,2022-5-09T08:28:33Z
2022-05-09T06:29:56Z,42.805,6.029,13.2999,4.60031,2470.297,2022-5-09T08:31:37Z
2022-05-09T06:32:59Z,42.805,6.029,13.3002,4.60033,2470.32,2022-5-09T08:34:40Z
2022-05-09T06:36:02Z,42.805,6.029,13.2998,4.60032,2470.297,2022-5-09T08:37:43Z
2022-05-09T06:39:06Z,42.805,6.029,13.2996,4.60031,2470.297,2022-5-09T08:40:46Z
2022-05-09T06:42:09Z,42.805,6.029,13.2998,4.60032,2470.32,2022-5-09T08:43:49Z
2022-05-09T06:45:12Z,42.805,6.029,13.2996,4.60031,2470.287,2022-5-09T08:46:52Z
2022-05-09T06:48:15Z,42.805,6.029,13.2996,4.60031,2470.306,2022-5-09T08:49:55Z
2022-05-09T06:51:18Z,42.805,6.029,13.2997,4.60031,2470.287,2022-5-09T08:52:58Z
2022-05-09T06:54:21Z,42.805,6.029,13.2999,4.60032,2470.32,2022-5-09T08:56:02Z
2022-05-09T06:57:24Z,42.805,6.029,13.2998,4.60031,2470.343,2022-5-09T08:59:05Z
2022-05-09T07:00:27Z,42.805,6.029,13.2999,4.60033,2470.31,2022-5-09T09:02:08Z
2022-05-09T07:03:30Z,42.805,6.029,13.2998,4.60033,2470.273,2022-5-09T09:05:11Z
2022-05-09T07:06:34Z,42.805,6.029,13.2998,4.60031,2470.31,2022-5-09T09:08:14Z
2022-05-09T07:09:37Z,42.805,6.029,13.2998,4.60032,2470.273,2022-5-09T09:11:17Z
2022-05-09T07:12:40Z,42.805,6.029,13.3002,4.60032,2470.32,2022-5-09T09:14:20Z
2022-05-09T07:15:43Z,42.805,6.029,13.2998,4.60033,2470.32,2022-5-09T09:17:23Z
2022-05-09T07:18:46Z,42.805,6.029,13.2998,4.60032,2470.297,2022-5-09T09:20:26Z
2022-05-09T07:21:49Z,42.805,6.029,13.2999,4.60032,2470.297,2022-5-09T09:23:30Z
2022-05-09T07:24:52Z,42.805,6.029,13.2996,4.60032,2470.297,2022-5-09T09:26:33Z
2022-05-09T07:27:55Z,42.805,6.029,13.2998,4.60032,2470.273,2022-5-09T09:29:36Z
2022-05-09T07:30:59Z,42.805,6.029,13.2998,4.60032,2470.273,2022-5-09T09:32:39Z
2022-05-09T07:34:02Z,42.805,6.029,13.2998,4.60033,2470.25,2022-5-09T09:35:42Z
2022-05-09T07:37:05Z,42.805,6.029,13.3000,4.60033,2470.25,2022-5-09T09:38:45Z
2022-05-09T07:40:08Z,42.805,6.029,13.3000,4.60032,2470.287,2022-5-09T09:41:48Z
2022-05-09T07:43:11Z,42.805,6.029,13.2997,4.60033,2470.25,2022-5-09T09:44:51Z
2022-05-09T07:46:14Z,42.805,6.029,13.3000,4.60032,2470.287,2022-5-09T09:47:54Z
2022-05-09T07:49:17Z,42.805,6.029,13.2996,4.60033,2470.25,2022-5-09T09:50:58Z
2022-05-09T07:52:20Z,42.805,6.029,13.3000,4.60033,2470.25,2022-5-09T09:54:01Z
2022-05-09T07:55:23Z,42.805,6.029,13.2998,4.60033,2470.25,2022-5-09T09:57:04Z
2022-05-09T07:58:27Z,42.805,6.029,13.3000,4.60033,2470.25,2022-5-09T10:00:07Z
2022-05-09T08:01:30Z,42.805,6.029,13.2998,4.60033,2470.273,2022-5-09T10:03:10Z
2022-05-09T08:04:33Z,42.805,6.029,13.3002,4.60033,2470.273,2022-5-09T10:06:13Z
2022-05-09T08:07:36Z,42.805,6.029,13.2997,4.60031,2470.25,2022-5-09T10:09:16Z
2022-05-09T08:10:39Z,42.805,6.029,13.2999,4.60033,2470.273,2022-5-09T10:12:19Z
2022-05-09T08:13:42Z,42.805,6.029,13.2998,4.60032,2470.273,2022-5-09T10:15:23Z
2022-05-09T08:16:45Z,42.805,6.029,13.3000,4.60033,2470.297,2022-5-09T10:18:26Z
2022-05-09T08:19:48Z,42.805,6.029,13.2999,4.60033,2470.278,2022-5-09T10:21:29Z
2022-05-09T08:22:51Z,42.805,6.029,13.2999,4.60032,2470.25,2022-5-09T10:24:32Z
2022-05-09T08:25:55Z,42.805,6.029,13.3002,4.60032,2470.25,2022-5-09T10:27:35Z
2022-05-09T08:28:58Z,42.805,6.029,13.3000,4.60032,2470.25,2022-5-09T10:30:38Z
2022-05-09T08:32:01Z,42.805,6.029,13.2996,4.60032,2470.273,2022-5-09T10:33:41Z
2022-05-09T08:35:04Z,42.805,6.029,13.2999,4.60033,2470.273,2022-5-09T10:36:44Z
2022-05-09T08:38:07Z,42.805,6.029,13.3001,4.60032,2470.273,2022-5-09T10:39:48Z
2022-05-09T08:41:10Z,42.805,6.029,13.3000,4.60033,2470.25,2022-5-09T10:42:51Z
2022-05-09T08:44:13Z,42.805,6.029,13.3003,4.60033,2470.25,2022-5-09T10:45:54Z
2022-05-09T08:47:16Z,42.805,6.029,13.3000,4.60033,2470.25,2022-5-09T10:48:57Z
2022-05-09T08:50:20Z,42.805,6.029,13.3004,4.60032,2470.25,2022-5-09T10:52:00Z
2022-05-09T08:53:23Z,42.805,6.029,13.2996,4.60032,2470.227,2022-5-09T10:55:03Z
2022-05-09T08:56:26Z,42.805,6.029,13.3002,4.60033,2470.25,2022-5-09T10:58:06Z
2022-05-09T08:59:29Z,42.805,6.029,13.2998,4.60033,2470.264,2022-5-09T11:01:09Z
2022-05-09T09:02:32Z,42.805,6.029,13.2996,4.60031,2470.25,2022-5-09T11:04:12Z
2022-05-09T09:05:35Z,42.805,6.029,13.3001,4.60033,2470.25,2022-5-09T11:07:16Z
2022-05-09T09:08:38Z,42.805,6.029,13.2996,4.60031,2470.273,2022-5-09T11:10:19Z
2022-05-09T09:11:41Z,42.805,6.029,13.2997,4.60033,2470.273,2022-5-09T11:13:22Z
2022-05-09T09:14:45Z,42.805,6.029,13.2995,4.60032,2470.287,2022-5-09T11:16:25Z
2022-05-09T09:17:48Z,42.805,6.029,13.3001,4.60031,2470.273,2022-5-09T11:19:28Z
2022-05-09T09:20:51Z,42.805,6.029,13.2999,4.60032,2470.25,2022-5-09T11:22:31Z
2022-05-09T09:23:54Z,42.805,6.029,13.2996,4.60032,2470.273,2022-5-09T11:25:34Z
2022-05-09T09:26:57Z,42.805,6.029,13.3000,4.60033,2470.273,2022-5-09T11:28:37Z
2022-05-09T09:30:00Z,42.805,6.029,13.2999,4.60033,2470.273,2022-5-09T11:31:41Z
2022-05-09T09:33:03Z,42.805,6.029,13.2998,4.60032,2470.264,2022-5-09T11:34:44Z
2022-05-09T09:36:06Z,42.805,6.029,13.2998,4.60031,2470.287,2022-5-09T11:37:47Z
2022-05-09T09:39:10Z,42.805,6.029,13.2998,4.60031,2470.25,2022-5-09T11:40:50Z
2022-05-09T09:42:13Z,42.805,6.029,13.2998,4.60031,2470.273,2022-5-09T11:43:53Z
2022-05-09T09:45:16Z,42.805,6.029,13.2998,4.60032,2470.25,2022-5-09T11:46:56Z
2022-05-09T09:48:19Z,42.805,6.029,13.2998,4.60032,2470.273,2022-5-09T11:49:59Z
2022-05-09T09:51:22Z,42.805,6.029,13.2999,4.60032,2470.25,2022-5-09T11:53:02Z
2022-05-09T09:54:25Z,42.805,6.029,13.3003,4.60032,2470.297,2022-5-09T11:56:06Z
2022-05-09T09:57:28Z,42.805,6.029,13.3001,4.60032,2470.273,2022-5-09T11:59:09Z
2022-05-09T10:00:31Z,42.805,6.029,13.2998,4.60032,2470.236,2022-5-09T12:02:12Z
2022-05-09T10:03:34Z,42.805,6.029,13.2999,4.60031,2470.273,2022-5-09T12:05:15Z
2022-05-09T10:06:38Z,42.805,6.029,13.2996,4.60033,2470.273,2022-5-09T12:08:18Z
2022-05-09T10:09:41Z,42.805,6.029,13.2998,4.60032,2470.273,2022-5-09T12:11:21Z
2022-05-09T10:12:44Z,42.805,6.029,13.2999,4.60032,2470.273,2022-5-09T12:14:24Z
2022-05-09T10:15:47Z,42.805,6.029,13.2998,4.60033,2470.287,2022-5-09T12:17:27Z
2022-05-09T10:18:50Z,42.805,6.029,13.3000,4.60033,2470.273,2022-5-09T12:20:31Z
2022-05-09T10:21:53Z,42.805,6.029,13.2998,4.60032,2470.25,2022-5-09T12:23:34Z
2022-05-09T10:24:56Z,42.805,6.029,13.3000,4.60032,2470.31,2022-5-09T12:26:37Z
2022-05-09T10:27:59Z,42.805,6.029,13.3000,4.60032,2470.25,2022-5-09T12:29:40Z
2022-05-09T10:31:03Z,42.805,6.029,13.3002,4.60033,2470.31,2022-5-09T12:32:43Z
2022-05-09T10:34:06Z,42.805,6.029,13.2998,4.60032,2470.273,2022-5-09T12:35:46Z
2022-05-09T10:37:09Z,42.805,6.029,13.3001,4.60033,2470.31,2022-5-09T12:38:49Z
2022-05-09T10:40:12Z,42.805,6.029,13.2998,4.60033,2470.297,2022-5-09T12:41:52Z
2022-05-09T10:43:15Z,42.805,6.029,13.2999,4.60031,2470.297,2022-5-09T12:44:56Z
2022-05-09T10:46:18Z,42.805,6.029,13.2998,4.60032,2470.25,2022-5-09T12:47:59Z
2022-05-09T10:49:21Z,42.805,6.029,13.3000,4.60032,2470.273,2022-5-09T12:51:02Z
2022-05-09T10:52:24Z,42.805,6.029,13.2998,4.60033,2470.273,2022-5-09T12:54:05Z
2022-05-09T10:55:28Z,42.805,6.029,13.3000,4.60032,2470.287,2022-5-09T12:57:08Z
2022-05-09T10:58:31Z,42.805,6.029,13.2996,4.60033,2470.273,2022-5-09T13:00:11Z
2022-05-09T11:01:34Z,42.805,6.029,13.2998,4.60032,2470.334,2022-5-09T13:03:14Z
2022-05-09T11:04:37Z,42.805,6.029,13.2996,4.60032,2470.297,2022-5-09T13:06:17Z
2022-05-09T11:07:40Z,42.805,6.029,13.3002,4.60032,2470.273,2022-5-09T13:09:20Z
2022-05-09T11:10:43Z,42.805,6.029,13.2996,4.60033,2470.31,2022-5-09T13:12:24Z
2022-05-09T11:13:46Z,42.805,6.029,13.2997,4.60031,2470.297,2022-5-09T13:15:27Z
2022-05-09T11:16:49Z,42.805,6.029,13.3004,4.60032,2470.264,2022-5-09T13:18:30Z
2022-05-09T11:19:53Z,42.805,6.029,13.2998,4.60032,2470.287,2022-5-09T13:21:33Z
2022-05-09T11:22:56Z,42.805,6.029,13.2996,4.60032,2470.32,2022-5-09T13:24:36Z
2022-05-09T11:25:59Z,42.805,6.029,13.3000,4.60033,2470.273,2022-5-09T13:27:39Z
2022-05-09T11:29:02Z,42.805,6.029,13.3003,4.60032,2470.297,2022-5-09T13:30:42Z
2022-05-09T11:32:05Z,42.805,6.029,13.3004,4.60032,2470.273,2022-5-09T13:33:45Z
2022-05-09T11:35:08Z,42.805,6.029,13.2998,4.60031,2470.273,2022-5-09T13:36:49Z
2022-05-09T11:38:11Z,42.805,6.029,13.3000,4.60031,2470.297,2022-5-09T13:39:52Z
2022-05-09T11:41:14Z,42.805,6.029,13.3000,4.60033,2470.297,2022-5-09T13:42:55Z
2022-05-09T11:44:18Z,42.805,6.029,13.2997,4.60032,2470.287,2022-5-09T13:45:58Z
2022-05-09T11:47:21Z,42.805,6.029,13.3000,4.60031,2470.273,2022-5-09T13:49:01Z
2022-05-09T11:50:24Z,42.805,6.029,13.2998,4.60032,2470.273,2022-5-09T13:52:04Z
2022-05-09T11:53:27Z,42.805,6.029,13.2999,4.60031,2470.31,2022-5-09T13:55:07Z
2022-05-09T11:56:30Z,42.805,6.029,13.3002,4.60031,2470.31,2022-5-09T13:58:10Z
2022-05-09T11:59:33Z,42.805,6.029,13.2996,4.60032,2470.32,2022-5-09T14:01:14Z
2022-05-09T12:02:36Z,42.805,6.029,13.2997,4.60032,2470.31,2022-5-09T14:04:17Z
2022-05-09T12:05:39Z,42.805,6.029,13.2999,4.60031,2470.297,2022-5-09T14:07:20Z
2022-05-09T12:08:42Z,42.805,6.029,13.2998,4.60033,2470.273,2022-5-09T14:10:23Z
2022-05-09T12:11:46Z,42.805,6.029,13.2997,4.60031,2470.297,2022-5-09T14:13:26Z
2022-05-09T12:14:49Z,42.805,6.029,13.2998,4.60031,2470.297,2022-5-09T14:16:29Z
2022-05-09T12:17:52Z,42.805,6.029,13.3000,4.60031,2470.32,2022-5-09T14:19:32Z
2022-05-09T12:20:55Z,42.805,6.029,13.2998,4.60031,2470.287,2022-5-09T14:22:35Z
2022-05-09T12:23:58Z,42.805,6.029,13.2997,4.60032,2470.31,2022-5-09T14:25:39Z
2022-05-09T12:27:01Z,42.805,6.029,13.2997,4.60031,2470.32,2022-5-09T14:28:42Z
2022-05-09T12:30:04Z,42.805,6.029,13.2997,4.60032,2470.334,2022-5-09T14:31:45Z
2022-05-09T12:33:07Z,42.805,6.029,13.2999,4.60031,2470.297,2022-5-09T14:34:48Z
2022-05-09T12:36:11Z,42.805,6.029,13.2998,4.60031,2470.32,2022-5-09T14:37:51Z
2022-05-09T12:39:14Z,42.805,6.029,13.2998,4.60031,2470.297,2022-5-09T14:40:54Z
2022-05-09T12:42:17Z,42.805,6.029,13.3000,4.60032,2470.334,2022-5-09T14:43:57Z
2022-05-09T12:45:20Z,42.805,6.029,13.3000,4.60033,2470.273,2022-5-09T14:47:00Z
2022-05-09T12:48:23Z,42.805,6.029,13.2999,4.60032,2470.32,2022-5-09T14:50:03Z
2022-05-09T12:51:26Z,42.805,6.029,13.2999,4.60032,2470.32,2022-5-09T14:53:07Z
2022-05-09T12:54:29Z,42.805,6.029,13.2998,4.60031,2470.334,2022-5-09T14:56:10Z
2022-05-09T12:57:32Z,42.805,6.029,13.2998,4.60032,2470.297,2022-5-09T14:59:13Z
2022-05-09T13:00:36Z,42.805,6.029,13.2998,4.60031,2470.32,2022-5-09T15:02:16Z
2022-05-09T13:03:39Z,42.805,6.029,13.3000,4.60031,2470.297,2022-5-09T15:05:19Z
2022-05-09T13:06:42Z,42.805,6.029,13.2998,4.60032,2470.32,2022-5-09T15:08:22Z
2022-05-09T13:09:45Z,42.805,6.029,13.2999,4.60034,2470.32,2022-5-09T15:11:25Z
2022-05-09T13:12:48Z,42.805,6.029,13.2994,4.60031,2470.31,2022-5-09T15:14:28Z
2022-05-09T13:15:51Z,42.805,6.029,13.3001,4.60032,2470.25,2022-5-09T15:17:32Z
2022-05-09T13:18:54Z,42.805,6.029,13.2999,4.60032,2470.273,2022-5-09T15:20:35Z
2022-05-09T13:21:57Z,42.805,6.029,13.2999,4.60033,2470.32,2022-5-09T15:23:38Z
2022-05-09T13:25:01Z,42.805,6.029,13.2999,4.60033,2470.297,2022-5-09T15:26:41Z
2022-05-09T13:28:04Z,42.805,6.029,13.3000,4.60032,2470.297,2022-5-09T15:29:44Z
2022-05-09T13:31:07Z,42.805,6.029,13.2996,4.60033,2470.273,2022-5-09T15:32:47Z
2022-05-09T13:34:10Z,42.805,6.029,13.3000,4.60033,2470.334,2022-5-09T15:35:50Z
2022-05-09T13:37:13Z,42.805,6.029,13.2999,4.60032,2470.297,2022-5-09T15:38:53Z
2022-05-09T13:40:16Z,42.805,6.029,13.2998,4.60033,2470.334,2022-5-09T15:41:57Z
2022-05-09T13:43:19Z,42.805,6.029,13.2996,4.60033,2470.31,2022-5-09T15:45:00Z
2022-05-09T13:46:22Z,42.805,6.029,13.2996,4.60033,2470.287,2022-5-09T15:48:03Z
2022-05-09T13:49:25Z,42.805,6.029,13.2997,4.60032,2470.31,2022-5-09T15:51:06Z
2022-05-09T13:52:29Z,42.805,6.029,13.2998,4.60033,2470.297,2022-5-09T15:54:09Z
2022-05-09T13:55:32Z,42.805,6.029,13.3000,4.60033,2470.297,2022-5-09T15:57:12Z
2022-05-09T13:58:35Z,42.805,6.029,13.2999,4.60032,2470.32,2022-5-09T16:00:15Z
2022-05-09T14:01:38Z,42.805,6.029,13.2998,4.60032,2470.334,2022-5-09T16:03:18Z
2022-05-09T14:04:41Z,42.805,6.029,13.2994,4.60033,2470.343,2022-5-09T16:06:22Z
2022-05-09T14:07:44Z,42.805,6.029,13.2997,4.60032,2470.32,2022-5-09T16:09:25Z
2022-05-09T14:10:47Z,42.805,6.029,13.2999,4.60032,2470.32,2022-5-09T16:12:28Z
2022-05-09T14:13:50Z,42.805,6.029,13.2999,4.60034,2470.334,2022-5-09T16:15:31Z
2022-05-09T14:16:54Z,42.805,6.029,13.3000,4.60033,2470.32,2022-5-09T16:18:34Z
2022-05-09T14:19:57Z,42.805,6.029,13.3001,4.60034,2470.297,2022-5-09T16:21:37Z
2022-05-09T14:23:00Z,42.805,6.029,13.3000,4.60032,2470.297,2022-5-09T16:24:40Z
2022-05-09T14:26:03Z,42.805,6.029,13.3002,4.60032,2470.334,2022-5-09T16:27:43Z
2022-05-09T14:29:06Z,42.805,6.029,13.2998,4.60033,2470.32,2022-5-09T16:30:46Z
2022-05-09T14:32:09Z,42.805,6.029,13.2998,4.60032,2470.334,2022-5-09T16:33:50Z
2022-05-09T14:35:12Z,42.805,6.029,13.2997,4.60032,2470.32,2022-5-09T16:36:53Z
2022-05-09T14:38:15Z,42.805,6.029,13.2998,4.60033,2470.273,2022-5-09T16:39:56Z
2022-05-09T14:41:19Z,42.805,6.029,13.3000,4.60033,2470.297,2022-5-09T16:42:59Z
2022-05-09T14:44:22Z,42.805,6.029,13.3004,4.60033,2470.31,2022-5-09T16:46:02Z
2022-05-09T14:47:25Z,42.805,6.029,13.3000,4.60034,2470.297,2022-5-09T16:49:05Z
2022-05-09T14:50:28Z,42.805,6.029,13.3008,4.60033,2470.357,2022-5-09T16:52:08Z
2022-05-09T14:53:31Z,42.805,6.029,13.3000,4.60034,2470.334,2022-5-09T16:55:11Z
2022-05-09T14:56:34Z,42.805,6.029,13.3001,4.60034,2470.334,2022-5-09T16:58:15Z
2022-05-09T14:59:37Z,42.805,6.029,13.3001,4.60033,2470.32,2022-5-09T17:01:18Z
2022-05-09T15:02:40Z,42.805,6.029,13.3002,4.60033,2470.32,2022-5-09T17:04:21Z
2022-05-09T15:05:43Z,42.805,6.029,13.2998,4.60033,2470.287,2022-5-09T17:07:24Z
2022-05-09T15:08:47Z,42.805,6.029,13.3001,4.60033,2470.297,2022-5-09T17:10:27Z
2022-05-09T15:11:50Z,42.805,6.029,13.2998,4.60033,2470.32,2022-5-09T17:13:30Z
2022-05-09T15:14:53Z,42.805,6.029,13.2998,4.60032,2470.297,2022-5-09T17:16:33Z